Temp
-14 -13 -13 -13 -14 -14 -14 -13 -13 -13 -14 -14 -14 -15 -15 -15 -15 -15 -15 -14 -14 -14 -14 -14 -14 -14 -14 -14 -13 -13 -13 -12 -12 -12 -12 -14 -13 -13 -13 -13 -13 -13 -13
-14 -13 -14 -14 -14 -14 -14 -14 -14 -15 -14 -14 -15 -15 -15 -16 -15 -15 -16 -15 -15 -15 -15 -15 -15 -15 -15 -15 -15 -15 -15 -14 -14 -13 -14 -14 -14 -14 -14 -13 -13 -13 -13
-14 -14 -14 -14 -14 -15 -15 -15 -16 -15 -15 -16 -16 -16 -16 -16 -16 -16 -17 -16 -16 -16 -16 -16 -16 -16 -17 -17 -16 -16 -16 -16 -15 -14 -14 -14 -14 -15 -15 -14 -14 -13 -13
-14 -16 -15 -14 -15 -15 -16 -16 -16 -17 -17 -17 -17 -17 -17 -17 -17 -17 -17 -17 -17 -17 -18 -18 -18 -18 -18 -18 -18 -18 -18 -18 -17 -17 -16 -16 -15 -15 -15 -15 -14 -14 -14
-16 -17 -16 -16 -16 -16 -16 -16 -17 -18 -18 -17 -17 -17 -18 -18 -18 -18 -19 -19 -19 -19 -20 -20 -20 -20 -20 -20 -20 -20 -20 -20 -20 -19 -19 -18 -18 -17 -17 -16 -15 -15 -15
-16 -16 -17 -16 -17 -17 -17 -18 -19 -18 -18 -18 -18 -18 -19 -19 -20 -20 -21 -21 -21 -21 -21 -22 -22 -22 -22 -22 -22 -22 -22 -22 -21 -21 -20 -20 -20 -20 -19 -18 -17 -16 -15
-17 -17 -17 -17 -17 -18 -19 -20 -18 -18 -18 -19 -19 -20 -20 -20 -21 -21 -21 -22 -22 -22 -23 -23 -23 -23 -23 -23 -23 -23 -23 -23 -23 -23 -22 -23 -22 -22 -21 -20 -20 -19 -18
-18 -18 -18 -18 -18 -19 -19 -19 -19 -20 -20 -20 -20 -21 -21 -21 -22 -22 -22 -23 -23 -23 -23 -23 -23 -23 -23 -23 -23 -23 -23 -23 -24 -24 -23 -23 -23 -23 -22 -22 -21 -20 -20
-19 -19 -20 -20 -20 -20 -20 -20 -20 -20 -20 -21 -22 -22 -22 -23 -23 -23 -23 -23 -23 -23 -23 -23 -24 -24 -24 -24 -24 -24 -24 -24 -24 -25 -25 -25 -25 -25 -23 -22 -22 -21 -20
-20 -20 -20 -21 -21 -21 -21 -21 -21 -22 -22 -22 -23 -23 -23 -23 -24 -24 -23 -23 -24 -24 -24 -24 -24 -24 -24 -25 -24 -24 -24 -24 -25 -25 -25 -26 -25 -25 -24 -22 -21 -20 -20
-21 -21 -21 -21 -21 -22 -22 -22 -22 -22 -23 -23 -23 -24 -24 -24 -24 -24 -24 -24 -24 -24 -25 -25 -25 -25 -25 -25 -25 -25 -24 -24 -25 -25 -25 -25 -25 -24 -23 -22 -21 -20 -20
-22 -22 -22 -22 -22 -22 -22 -23 -23 -23 -23 -24 -24 -24 -24 -24 -24 -24 -24 -24 -24 -25 -25 -25 -25 -25 -24 -25 -25 -25 -25 -25 -25 -24 -24 -24 -23 -23 -22 -22 -21 -21 -20
-22 -22 -23 -23 -23 -23 -23 -23 -23 -23 -24 -24 -24 -24 -25 -25 -25 -24 -25 -25 -25 -25 -25 -25 -25 -25 -25 -25 -25 -25 -25 -25 -24 -24 -24 -23 -23 -22 -22 -21 -21 -20 -20
-23 -23 -23 -23 -23 -23 -24 -24 -24 -24 -24 -24 -25 -25 -25 -25 -25 -25 -25 -25 -26 -26 -26 -25 -25 -25 -25 -25 -25 -25 -25 -25 -24 -24 -24 -23 -22 -22 -22 -21 -21 -21 -21
-23 -23 -24 -24 -24 -24 -24 -24 -25 -25 -25 -25 -25 -25 -25 -25 -25 -25 -26 -26 -26 -26 -26 -25 -25 -25 -25 -25 -25 -25 -25 -25 -24 -24 -24 -22 -22 -22 -22 -21 -21 -21 -21
-24 -24 -24 -24 -24 -25 -25 -25 -25 -25 -25 -25 -25 -25 -25 -25 -26 -26 -26 -26 -26 -26 -26 -26 -25 -25 -25 -25 -25 -25 -25 -25 -24 -24 -23 -22 -22 -22 -21 -21 -21 -21 -21
-24 -24 -25 -25 -25 -25 -25 -25 -25 -25 -26 -25 -26 -26 -26 -26 -26 -26 -26 -26 -26 -26 -26 -26 -25 -25 -25 -25 -25 -25 -25 -24 -24 -24 -23 -22 -22 -22 -21 -21 -21 -20 -20
-24 -25 -25 -26 -26 -26 -26 -26 -26 -26 -26 -26 -26 -26 -26 -26 -27 -27 -27 -27 -27 -26 -26 -26 -26 -25 -25 -25 -25 -25 -25 -24 -24 -24 -23 -22 -22 -22 -21 -21 -20 -20 -20
-25 -25 -25 -26 -26 -26 -26 -26 -26 -26 -27 -27 -27 -27 -27 -27 -27 -27 -27 -27 -27 -27 -27 -26 -26 -25 -25 -25 -25 -25 -25 -24 -24 -24 -23 -22 -22 -21 -21 -21 -21 -21 -20
-25 -25 -26 -26 -26 -26 -27 -27 -27 -27 -27 -27 -27 -28 -28 -28 -28 -28 -28 -28 -28 -27 -27 -26 -26 -26 -25 -25 -25 -25 -25 -24 -24 -24 -23 -22 -22 -21 -21 -21 -21 -21 -21
-25 -26 -26 -26 -27 -27 -27 -28 -28 -28 -28 -28 -28 -28 -28 -28 -28 -28 -28 -28 -27 -27 -27 -26 -26 -26 -25 -25 -25 -25 -25 -24 -24 -24 -24 -23 -22 -21 -20 -20 -20 -20 -20
-25 -26 -26 -26 -27 -27 -28 -28 -28 -28 -28 -28 -28 -28 -28 -28 -28 -28 -28 -28 -27 -27 -27 -26 -26 -26 -26 -26 -25 -25 -25 -24 -24 -24 -24 -24 -23 -21 -21 -20 -20 -20 -20
-26 -26 -27 -27 -27 -27 -28 -28 -28 -28 -28 -28 -28 -28 -28 -28 -28 -28 -28 -28 -27 -27 -27 -26 -26 -26 -26 -25 -25 -25 -25 -24 -24 -24 -24 -24 -24 -23 -21 -20 -20 -20 -20
-26 -26 -27 -27 -28 -28 -28 -28 -28 -28 -28 -28 -28 -29 -29 -28 -28 -28 -28 -28 -28 -27 -27 -26 -26 -26 -26 -25 -25 -25 -25 -24 -24 -24 -24 -24 -23 -23 -23 -21 -20 -20 -19
-26 -27 -27 -27 -28 -28 -28 -28 -28 -28 -28 -28 -29 -28 -29 -29 -29 -29 -28 -28 -28 -28 -27 -27 -26 -26 -26 -25 -25 -25 -25 -24 -24 -24 -24 -24 -23 -23 -23 -23 -22 -21 -20
-26 -27 -27 -27 -28 -28 -28 -28 -28 -28 -28 -28 -29 -29 -29 -29 -29 -29 -29 -28 -28 -28 -27 -27 -26 -26 -26 -26 -25 -25 -24 -24 -24 -24 -24 -24 -23 -23 -23 -23 -23 -22 -21
Height
5767 5766 5765 5764 5762 5761 5760 5759 5757 5756 5756 5754 5753 5752 5750 5749 5747 5745 5741 5738 5735 5732 5729 5725 5722 5719 5715 5712 5709 5705 5703 5700 5700 5701 5699 5698 5699 5699 5699 5699 5700 5702 5703
5751 5751 5750 5750 5750 5749 5747 5746 5746 5745 5743 5741 5741 5739 5736 5735 5732 5730 5726 5722 5718 5714 5711 5707 5703 5699 5695 5692 5688 5684 5679 5677 5675 5676 5675 5674 5675 5675 5676 5678 5678 5681 5683
5738 5734 5736 5737 5737 5735 5735 5733 5734 5733 5731 5730 5727 5725 5724 5721 5717 5714 5711 5707 5703 5699 5696 5691 5687 5683 5678 5673 5669 5664 5660 5657 5652 5651 5652 5648 5649 5647 5650 5653 5655 5658 5659
5725 5724 5723 5723 5724 5724 5722 5722 5720 5719 5719 5717 5714 5712 5710 5707 5703 5699 5694 5690 5686 5683 5679 5675 5670 5665 5660 5656 5652 5646 5640 5636 5631 5627 5626 5624 5621 5620 5621 5622 5630 5628 5632
5712 5716 5715 5713 5711 5711 5711 5708 5707 5706 5705 5703 5702 5698 5695 5692 5687 5683 5679 5675 5671 5667 5663 5659 5654 5649 5644 5638 5632 5627 5619 5613 5608 5603 5600 5599 5594 5590 5591 5593 5596 5601 5605
5704 5703 5703 5702 5701 5700 5697 5695 5694 5694 5693 5690 5687 5684 5679 5676 5673 5669 5665 5661 5657 5652 5648 5644 5639 5634 5629 5623 5616 5609 5600 5591 5586 5579 5576 5570 5569 5560 5559 5560 5564 5567 5576
5694 5693 5692 5692 5692 5688 5686 5686 5683 5681 5679 5675 5672 5668 5666 5663 5659 5655 5652 5647 5643 5638 5634 5630 5626 5620 5614 5609 5603 5594 5585 5573 5562 5555 5551 5545 5541 5538 5533 5534 5534 5538 5542
5684 5682 5681 5680 5679 5678 5676 5675 5671 5667 5665 5662 5660 5657 5653 5649 5646 5642 5639 5635 5631 5626 5621 5617 5612 5606 5599 5592 5585 5577 5568 5556 5546 5536 5527 5523 5514 5513 5506 5508 5510 5514 5519
5672 5671 5670 5669 5668 5667 5665 5662 5660 5657 5655 5652 5648 5645 5642 5637 5635 5631 5628 5623 5619 5614 5608 5602 5596 5591 5583 5576 5567 5559 5551 5539 5529 5518 5508 5501 5493 5488 5483 5487 5490 5491 5503
5661 5660 5660 5659 5657 5656 5654 5650 5649 5646 5644 5641 5636 5634 5631 5628 5623 5620 5617 5612 5607 5601 5595 5588 5582 5575 5567 5558 5549 5541 5534 5524 5514 5505 5496 5488 5481 5476 5474 5475 5477 5479 5485
5652 5652 5650 5650 5648 5645 5643 5641 5639 5637 5634 5630 5627 5624 5620 5617 5613 5609 5605 5599 5593 5588 5581 5575 5569 5561 5553 5543 5534 5525 5517 5509 5501 5494 5488 5481 5475 5470 5468 5467 5465 5466 5470
5644 5644 5643 5641 5638 5636 5634 5632 5629 5628 5625 5621 5618 5614 5609 5605 5602 5597 5592 5586 5580 5575 5569 5562 5555 5547 5539 5531 5522 5512 5505 5496 5489 5484 5479 5473 5468 5464 5461 5459 5457 5458 5460
5638 5637 5634 5633 5630 5628 5625 5622 5620 5617 5614 5611 5607 5604 5599 5594 5589 5585 5579 5574 5568 5562 5555 5548 5541 5534 5526 5519 5511 5502 5494 5487 5482 5477 5472 5466 5461 5458 5456 5454 5450 5450 5451
5631 5629 5626 5624 5621 5618 5615 5612 5609 5606 5602 5600 5596 5592 5588 5583 5578 5573 5568 5562 5555 5548 5542 5535 5528 5522 5515 5508 5501 5492 5485 5479 5475 5471 5465 5461 5458 5455 5452 5451 5449 5446 5447
5623 5620 5617 5614 5610 5607 5603 5601 5598 5594 5592 5588 5584 5580 5576 5571 5566 5561 5555 5549 5543 5536 5529 5522 5516 5510 5504 5498 5491 5483 5477 5473 5469 5464 5460 5457 5455 5452 5450 5449 5448 5445 5444
5614 5610 5608 5604 5601 5597 5593 5589 5586 5583 5579 5576 5571 5568 5563 5559 5554 5548 5542 5536 5530 5524 5517 5511 5506 5500 5494 5489 5483 5476 5471 5468 5464 5460 5456 5454 5453 5451 5450 5449 5448 5447 5447
5606 5602 5598 5594 5590 5586 5582 5579 5576 5571 5566 5563 5559 5555 5551 5545 5540 5535 5529 5524 5518 5513 5507 5502 5496 5491 5486 5480 5475 5471 5467 5463 5461 5457 5453 5452 5451 5451 5450 5449 5449 5449 5449
5596 5591 5586 5582 5578 5573 5569 5566 5563 5559 5554 5551 5547 5543 5538 5533 5529 5524 5518 5513 5508 5502 5498 5493 5488 5483 5478 5474 5469 5466 5462 5460 5457 5454 5451 5451 5450 5451 5451 5451 5451 5450 5451
5586 5580 5575 5570 5566 5561 5557 5553 5550 5546 5542 5538 5534 5530 5526 5522 5517 5513 5508 5503 5498 5494 5489 5485 5480 5476 5471 5468 5464 5461 5458 5456 5454 5452 5450 5449 5449 5451 5451 5452 5453 5453 5453
5578 5572 5566 5561 5556 5552 5548 5544 5540 5536 5533 5529 5525 5521 5517 5512 5507 5502 5498 5494 5490 5485 5482 5478 5473 5469 5465 5462 5459 5457 5454 5452 5451 5449 5447 5447 5447 5449 5451 5452 5454 5455 5456
5572 5565 5559 5553 5549 5544 5540 5536 5532 5528 5525 5521 5516 5512 5508 5503 5498 5493 5489 5485 5481 5478 5474 5471 5466 5463 5459 5457 5454 5452 5450 5449 5448 5446 5445 5445 5445 5446 5448 5451 5453 5455 5457
5568 5562 5555 5549 5543 5539 5534 5530 5526 5522 5518 5514 5510 5505 5500 5495 5490 5485 5480 5476 5473 5470 5467 5464 5460 5456 5453 5451 5449 5448 5447 5445 5444 5443 5443 5443 5442 5444 5445 5448 5451 5454 5456
5564 5558 5552 5547 5541 5535 5531 5527 5523 5519 5515 5509 5504 5499 5494 5488 5483 5477 5473 5468 5465 5462 5460 5457 5454 5450 5447 5446 5444 5443 5442 5441 5441 5441 5441 5441 5441 5441 5442 5445 5447 5450 5454
5559 5553 5547 5542 5537 5532 5528 5524 5520 5515 5510 5505 5500 5494 5488 5483 5477 5472 5466 5462 5458 5455 5453 5450 5447 5444 5442 5440 5439 5438 5437 5437 5437 5437 5437 5438 5439 5439 5440 5441 5444 5446 5450
5552 5547 5542 5536 5532 5528 5524 5519 5515 5510 5505 5500 5495 5489 5483 5477 5472 5466 5460 5455 5451 5448 5445 5443 5441 5438 5436 5434 5434 5433 5433 5432 5433 5433 5434 5434 5435 5436 5437 5438 5440 5442 5445
5545 5539 5534 5530 5525 5520 5516 5511 5507 5503 5498 5494 5488 5483 5478 5472 5466 5460 5454 5449 5445 5441 5438 5436 5434 5432 5430 5429 5428 5428 5428 5428 5428 5429 5430 5431 5432 5433 5434 5435 5436 5438 5440
Wind_Speed
55 55 48 48 46 42 46 48 41 38 43 47 45 47 48 46 50 53 54 56 59 61 63 66 68 70 72 74 75 75 76 76 75 72 70 67 65 64 63 64 62 60 60
60 60 52 49 47 48 43 44 43 47 51 48 48 49 50 54 54 57 57 60 62 65 66 67 69 70 71 73 73 74 73 76 77 77 73 71 71 70 69 68 70 68 66
45 38 44 39 42 39 41 38 39 41 41 44 46 49 53 56 57 58 56 59 59 61 63 64 66 67 69 70 72 73 74 77 77 79 79 79 77 77 75 75 74 73 72
33 29 35 37 43 44 41 41 41 38 39 42 46 48 50 54 56 58 58 61 60 62 63 63 63 65 67 69 71 74 76 79 81 84 86 86 86 86 86 84 80 82 81
29 34 39 40 46 45 40 41 36 36 40 44 45 47 50 52 54 55 56 56 57 57 57 58 59 61 61 63 65 67 70 73 76 80 82 82 84 86 86 86 89 85 79
34 33 36 37 43 44 39 35 34 37 41 45 46 47 47 49 49 49 50 51 52 51 51 51 52 52 54 56 60 62 67 71 72 75 75 76 76 79 81 82 82 82 83
37 41 38 40 44 43 37 37 38 40 44 44 45 46 48 48 47 47 48 48 48 47 47 48 49 50 52 52 54 59 64 70 70 69 69 69 69 68 71 70 71 67 67
41 42 41 36 37 35 39 43 43 41 44 44 44 45 46 46 45 45 45 44 45 46 48 50 50 51 55 59 63 65 63 62 62 64 67 65 67 65 66 62 59 61 58
38 31 29 32 35 36 37 39 41 41 43 42 41 42 42 42 41 41 42 43 45 49 52 51 51 57 60 64 66 62 58 58 60 60 59 56 53 48 50 49 49 54 49
27 26 27 27 27 30 33 35 36 38 39 38 37 37 38 39 41 43 46 49 51 49 48 50 53 58 63 64 61 57 54 55 52 46 44 42 39 34 32 34 35 41 39
23 24 24 27 27 29 30 31 33 35 35 35 34 37 39 41 44 46 48 45 44 46 51 54 59 63 64 62 57 56 54 50 41 34 30 30 31 33 33 34 35 30 23
19 21 24 28 29 30 31 32 33 34 35 36 39 41 44 45 47 46 46 45 45 47 52 57 61 64 62 57 54 53 50 41 32 30 28 31 29 24 24 25 29 26 25
22 25 26 28 30 32 33 35 36 38 40 41 42 43 46 47 47 48 49 50 49 55 57 61 61 60 59 51 49 48 43 32 26 26 28 24 18 15 14 18 20 19 22
24 26 27 29 32 33 34 34 36 38 40 41 43 45 43 40 42 46 50 53 55 57 60 61 57 55 47 46 44 43 37 29 24 25 22 14 12 9 7 7 6 13 9
24 28 31 33 36 39 39 40 40 40 41 41 41 40 44 45 49 52 50 51 55 57 55 52 46 42 42 41 39 37 31 26 23 25 16 10 8 7 3 1 3 5 5
28 32 37 37 38 38 39 40 40 40 40 41 43 45 45 48 50 50 51 53 51 46 43 41 40 39 38 35 33 30 26 22 21 22 12 7 5 6 3 1 2 4 6
37 40 39 38 39 37 36 31 41 39 41 46 47 47 50 48 48 47 45 44 43 42 39 38 37 35 33 31 29 25 21 19 18 18 9 6 4 2 7 5 3 6 9
37 39 38 37 38 38 38 39 40 46 48 46 46 45 43 42 41 41 41 40 40 37 35 33 33 32 30 28 25 22 19 16 15 15 6 5 7 4 5 9 5 1 6
35 36 36 35 34 34 34 36 37 38 39 39 38 38 37 37 37 37 38 36 34 32 30 31 31 30 28 26 22 19 16 14 13 12 6 6 9 10 12 10 8 9 9
29 32 32 31 30 31 31 31 31 32 32 32 33 33 34 35 36 37 36 34 32 30 28 29 29 28 25 23 19 17 14 12 11 9 7 5 10 12 13 11 8 8 11
28 27 29 29 29 28 28 28 29 29 29 29 29 30 32 33 34 35 34 32 30 28 27 27 27 25 24 21 17 15 12 11 9 8 7 5 10 14 17 16 12 11 11
31 30 29 28 26 25 24 22 21 20 21 23 25 27 29 30 30 31 30 29 28 26 25 25 26 24 21 19 17 14 11 10 9 8 6 5 6 12 15 17 18 17 12
32 33 30 29 26 22 21 20 19 21 22 24 26 28 29 30 30 30 29 27 26 25 24 24 24 24 21 18 15 13 12 9 9 8 8 7 6 8 14 18 18 21 19
29 30 31 27 20 16 17 19 20 25 28 27 30 33 32 31 32 32 30 27 25 24 23 23 22 23 21 18 15 12 11 10 9 8 8 8 8 8 8 14 21 20 21
28 26 29 26 22 22 26 26 27 28 28 30 32 35 39 38 36 34 32 28 25 23 22 22 20 21 20 17 15 13 11 10 10 8 8 8 8 8 9 9 14 23 24
32 27 25 28 29 28 30 32 31 28 28 32 33 35 37 41 39 38 33 29 27 24 22 21 20 19 18 16 15 13 11 10 10 10 9 9 8 9 10 10 10 15 23
Wind_Direction
274 272 270 275 278 282 282 271 269 280 270 265 273 271 269 271 275 274 276 279 280 281 282 283 284 283 284 284 284 283 283 281 280 279 276 274 271 267 264 262 261 260 260
273 265 267 271 270 273 272 268 263 262 260 266 270 276 275 277 278 278 278 279 280 281 282 282 283 283 283 283 283 282 281 280 279 277 276 273 271 270 266 263 262 261 258
255 244 259 265 267 261 261 261 267 268 273 280 281 281 281 280 278 278 280 282 283 283 282 282 283 284 283 283 282 281 281 278 277 276 275 275 273 272 269 267 264 261 260
259 278 258 254 264 270 271 276 268 270 278 282 280 280 281 282 280 280 282 282 283 283 283 284 286 285 286 286 286 285 283 281 280 278 276 275 273 272 270 269 267 267 264
273 267 267 266 274 275 270 261 274 286 286 284 284 283 282 281 282 284 284 285 286 287 289 290 289 289 289 289 288 288 288 287 285 283 281 279 277 275 272 269 266 266 266
281 276 268 275 277 264 269 279 285 284 283 283 284 285 286 286 287 288 290 291 291 291 291 290 290 292 293 295 296 295 294 295 293 289 285 282 278 276 273 270 268 267 264
281 267 273 266 270 282 290 289 286 283 283 285 286 288 287 287 289 290 290 291 291 291 291 291 294 295 296 297 302 302 299 296 294 292 290 288 285 281 277 270 265 264 263
275 285 287 285 280 281 284 283 283 285 286 287 289 288 288 288 289 288 289 291 293 294 295 296 295 295 297 300 302 304 301 297 296 297 295 292 287 281 274 271 261 256 258
276 275 279 282 285 285 287 290 289 290 287 286 286 287 287 288 289 290 291 292 295 296 296 295 295 301 307 308 306 304 303 301 302 301 298 295 291 286 274 266 263 259 261
279 283 283 282 285 288 289 289 288 289 289 288 292 291 290 289 290 292 295 297 296 295 293 297 302 308 312 309 306 306 305 306 305 300 297 296 294 288 279 272 264 261 268
276 277 279 281 285 289 292 293 294 292 290 291 289 288 288 289 291 295 297 297 299 297 298 301 305 309 311 310 308 309 310 309 305 303 300 293 289 286 282 278 276 274 262
282 288 293 295 296 295 293 291 292 292 292 289 288 288 289 291 294 294 291 294 300 302 303 304 305 308 309 307 308 311 312 312 308 304 303 300 295 288 286 283 274 278 271
298 300 302 301 300 295 292 292 291 291 289 287 287 288 291 293 294 295 291 297 302 306 305 305 304 305 307 305 310 311 313 312 307 307 307 302 295 294 294 292 292 278 275
302 300 299 297 295 296 294 294 293 293 292 292 290 291 291 290 297 294 295 299 301 302 304 305 304 304 303 307 311 311 315 314 311 311 312 297 289 322 305 301 312 274 275
300 301 306 305 301 301 300 294 294 294 292 289 291 290 293 291 294 298 298 299 301 303 303 304 305 304 306 310 312 312 313 313 315 318 313 302 302 333 6 17 327 8 248
302 306 305 302 298 298 295 293 291 289 290 291 293 293 294 294 296 298 299 301 303 305 307 306 307 307 309 311 313 311 311 311 314 319 314 298 289 334 80 260 142 76 127
299 299 300 298 295 293 292 286 289 279 287 293 294 294 296 297 297 299 301 301 303 306 306 309 309 309 310 315 314 312 308 308 309 318 314 286 248 323 91 112 109 68 117
298 299 299 297 295 293 291 287 281 282 288 291 293 294 295 296 297 299 301 303 307 307 307 308 312 313 313 318 313 311 307 304 305 316 311 251 215 185 134 120 127 152 124
306 305 303 300 299 298 294 292 291 291 291 293 294 295 296 298 299 300 302 306 308 307 307 309 313 314 313 317 311 309 301 298 298 311 307 229 209 195 170 151 115 106 146
326 316 309 307 304 301 300 299 299 299 298 299 300 300 299 299 301 302 304 304 306 306 307 310 310 313 311 315 309 306 297 292 290 298 302 235 214 202 199 194 175 139 160
338 330 328 321 315 311 309 307 306 305 305 306 306 307 306 307 305 303 301 300 302 303 305 309 312 311 310 313 307 301 293 286 279 275 294 252 213 210 210 211 197 176 160
345 340 340 334 326 320 316 315 317 320 322 320 319 320 320 318 313 309 305 300 299 300 302 304 313 312 308 309 307 297 288 275 270 260 267 268 221 207 213 216 216 211 179
343 342 335 335 337 341 338 337 339 345 340 336 329 327 329 329 326 319 312 306 299 298 300 303 308 312 307 306 304 289 285 269 260 252 235 238 236 220 205 212 216 218 219
335 341 339 333 333 337 337 335 336 339 344 345 347 350 345 337 335 330 321 311 303 297 298 300 303 309 303 301 303 285 276 266 255 249 240 227 224 225 220 205 209 216 217
332 334 338 330 320 321 324 324 326 329 331 334 336 339 343 345 340 335 328 318 309 301 296 297 298 304 299 294 296 286 272 259 253 243 233 231 228 223 221 217 205 207 212
330 319 327 333 322 319 313 307 309 313 318 319 325 331 329 331 334 333 326 320 314 305 297 295 295 298 294 288 289 283 267 254 245 240 228 228 227 215 213 217 220 211 210